Tracking 26325 objects as of 28-Nov-2022
HD Live streaming from Space Station
objects crossing your sky now

WESTFORD NEEDLES

Track WESTFORD NEEDLES now!
10-day predictions
WESTFORD NEEDLES is classified as:


NORAD ID: 2949
Int'l Code: 1963-014AS
Perigee: 1,621.1 km
Apogee: 5,446.6 km
Inclination: 85.7 °
Period: 163.5 minutes
Semi major axis: 9904 km
RCS: 0.2138 m2 (medium)
Launch date: May 9, 1963
Source: United States (US)
Launch site: AIR FORCE WESTERN TEST RANGE (AFWTR)
aabbcc
Your satellite tracking list
Your tracking list is empty




NASA's NSSDC Master Catalog

Two Line Element Set (TLE):
1  2949U 63014AS  22331.49563644  .00000666  00000-0  37850-1 0  9992
2  2949  85.7077 232.4231 1931140 159.4567  10.7963  8.80707186198631
Source of the keplerian elements: AFSPC